Location: ?
(35.4996°N, 139.3166°E)
Time: 04:07:58
(UTC+00:00)

Cosmos 1340 - Visible Passes

Search period start: 25 July 2024 00:00
Search period end: 04 August 2024 00:00
Orbit: 426 x 429 km, 81.2° (Epoch: 24 July)

Date Brightness Start Highest point End Pass type
(mag) Time Alt. Az. Time Alt. Az. Time Alt. Az.
25 Jul 5.6 16:16:59 13° NNE 16:16:59 13° NNE 16:17:25 10° NNE visible
26 Jul 5.2 17:08:08 12° NNW 17:08:08 12° NNW 17:08:26 10° NNW visible
27 Jul 5.6 16:26:02 12° N 16:26:02 12° N 16:26:22 10° N visible
